Jordan, MT

5:57 PM MDT on July 24, 2016 (GMT -0600)
Jordan

Weather History for KJDN - August, 2013

Change the Weather History Date:

Thursday, August 8, 2013

  Actual Average Record
Temperature  
Mean Temperature 64 °F 71 °F  
Max Temperature 78 °F 87 °F 104 °F (1983)
Min Temperature 49 °F 55 °F 43 °F (1932)
Degree Days  
Heating Degree Days 1 1  
Month to date heating degree days 7 5  
Since 1 June heating degree days 108 155  
Since 1 July heating degree days 13 30  
Cooling Degree Days 0 7  
Month to date cooling degree days 15 56  
Year to date cooling degree days 264 287  
Since 1 June cooling degree days 252 281  
Growing Degree Days 14 (Base 50)    
Moisture  
Dew Point 47 °F    
Average Humidity 52    
Maximum Humidity 86    
Minimum Humidity 17    
Precipitation  
Precipitation 0.00 in 0.05 in 1.04 in (2002)
Month to date precipitation 0.78 0.36  
Year to date precipitation 13.64 9.09  
Snow  
Snow 0.00 in - - ()
Month to date snowfall 0.0  
Since 1 June snowfall 0.0  
Since 1 July snowfall 0.0  
Snow Depth 0.00 in    
Sea Level Pressure  
Sea Level Pressure 30.06 in    
Wind  
Wind Speed 7 mph (ENE)    
Max Wind Speed 14 mph    
Max Gust Speed 18 mph    
T = Trace of Precipitation, MM = Missing Value Source: NWS Daily Summary

Daily Weather History Graph

Daily Weather History Graph

Search for Another Location

Airport or City:

Trip Planner

Search our weather history database for the weather conditions in past years. The results will help you decide how hot, cold, wet, or windy it might be!

Date:

Astronomy

Aug. 08, 2013 Rise Set
Actual Time 5:55 AM MDT 8:30 PM MDT
Civil Twilight 5:20 AM MDT 9:04 PM MDT
Nautical Twilight 4:37 AM MDT 9:48 PM MDT
Astronomical Twilight 3:46 AM MDT 10:38 PM MDT
Moon 7:57 AM MDT (8/8) 8:56 PM MDT (8/8)
Length of Visible Light 15h 44m
Length of Day
14h 34m
Waxing Crescent, 3% of the Moon is Illuminated
Aug 8
Waxing Crescent
Aug 14
First Quarter
Aug 20
Full
Aug 28
Last Quarter
Sep 5
New

Hourly Weather History & Observations

Time (MDT) Temp. Dew Point Humidity Pressure Visibility Wind Dir Wind Speed Gust Speed Precip Events Conditions
12:48 AM 53.1 °F 46.0 °F 77% 30.07 in - East 4.6 mph - N/A   Unknown
1:48 AM 51.1 °F 45.0 °F 80% 30.07 in - Calm Calm - N/A   Unknown
2:48 AM 52.0 °F 45.0 °F 77% 30.07 in - ENE 4.6 mph - N/A   Unknown
3:48 AM 50.0 °F 46.0 °F 86% 30.08 in - Calm Calm - N/A   Unknown
4:48 AM 50.0 °F 46.9 °F 89% 30.06 in - ENE 5.8 mph - N/A   Unknown
5:48 AM 50.0 °F 46.0 °F 86% 30.08 in - East 3.5 mph - N/A   Unknown
6:48 AM 51.1 °F 46.9 °F 86% 30.08 in - East 4.6 mph - N/A   Unknown
7:48 AM 55.0 °F 46.9 °F 74% 30.09 in - East 4.6 mph - N/A   Unknown
8:48 AM 60.1 °F 48.0 °F 64% 30.09 in - ESE 8.1 mph - N/A   Unknown
9:48 AM 63.0 °F 50.0 °F 63% 30.09 in - ESE 5.8 mph - N/A   Unknown
10:48 AM 69.1 °F 51.1 °F 53% 30.09 in - Variable 5.8 mph - N/A   Unknown
11:48 AM 73.0 °F 46.9 °F 39% 30.09 in - East 8.1 mph 16.1 mph N/A   Unknown
12:48 PM 71.6 °F 48.2 °F 43% 29.59 in - ENE 9.2 mph - N/A   Unknown
1:48 PM 75.0 °F 48.0 °F 38% 30.08 in - East 9.2 mph - N/A   Unknown
2:48 PM 75.9 °F 48.9 °F 38% 30.06 in - Variable 4.6 mph - N/A   Unknown
3:48 PM 77.0 °F 48.0 °F 36% 30.05 in - NE 10.4 mph 16.1 mph N/A   Unknown
4:48 PM 77.0 °F 48.9 °F 37% 30.06 in - NE 11.5 mph 18.4 mph N/A   Unknown
5:48 PM 77.0 °F 46.9 °F 34% 30.06 in - Variable 6.9 mph - N/A   Unknown
6:48 PM 75.9 °F 46.9 °F 36% 30.06 in - NE 9.2 mph - N/A   Unknown
7:48 PM 71.1 °F 48.0 °F 44% 30.08 in - NE 9.2 mph - N/A   Unknown
8:48 PM 66.9 °F 46.9 °F 49% 30.09 in - NE 10.4 mph - N/A   Unknown
9:48 PM 64.9 °F 45.0 °F 48% 30.11 in - ENE 11.5 mph - N/A   Unknown
10:48 PM 63.0 °F 46.0 °F 54% 30.11 in - ENE 9.2 mph - N/A   Unknown
11:48 PM 61.0 °F 46.0 °F 58% 30.13 in - East 6.9 mph - N/A   Unknown